Helicity
482 308 242 283 183 131 132 193 128 111 156 182 189 185 204 193 243 272 281 257 251 257
572 585 427 334 370 365 382 431 374 160 112 208 215 225 196 196 207 233 262 269 240 239
528 468 433 510 334 510 419 383 328 302 313 111 167 141 150 183 193 206 228 250 205 202
385 354 358 220 283 114 172 238 301 301 299 366 428 272 152 124 140 163 164 170 174 174
286 313 374 320 319 365 113 228 131 161 235 256 320 295 389 341 341 238 161 141 160 164
208 264 303 380 397 371 396 354 289 152 195 301 189 178 291 319 310 377 388 385 350 309
129 111 100 81 181 307 367 377 507 432 359 271 207 244 287 197 332 321 237 281 219 319
-52 9 44 98 76 62 97 151 187 245 273 329 370 278 200 285 291 323 354 414 382 243
-12 -17 -24 -15 -12 43 95 83 70 97 142 237 216 210 272 271 400 436 327 334 310 265
-27 -30 -3 5 2 15 60 50 36 21 60 77 80 148 204 103 114 224 267 318 317 249
12 4 -16 -16 -32 -25 3 39 61 76 49 49 20 75 172 181 147 147 118 159 170 234
14 22 15 -1 -26 -43 -10 8 18 29 56 62 59 84 76 83 33 75 202 87 85 153
4 -4 6 5 9 7 17 19 9 28 37 44 45 84 106 76 30 4 8 145 97 124
10 8 10 2 -10 -9 5 10 29 29 27 25 33 50 77 78 65 41 27 31 11 56
Wind_Speed
48 50 53 61 74 82 75 73 67 68 68 65 64 73 72 77 73 70 69 64 64 62
45 46 48 51 51 52 55 61 66 76 73 66 59 58 56 64 66 67 72 76 72 69
46 45 46 48 51 52 53 53 55 57 60 67 59 62 66 72 71 69 67 67 67 68
50 50 50 54 53 52 49 52 53 58 60 57 57 65 67 65 66 68 65 66 68 68
55 55 58 64 68 63 54 60 54 58 63 63 62 62 61 62 61 68 71 69 69 68
58 59 61 64 68 71 75 71 66 58 64 67 64 60 61 61 66 64 70 70 73 71
63 62 60 62 64 66 66 70 75 76 76 72 72 67 71 71 75 74 74 72 73 77
63 65 64 68 66 66 67 69 69 67 68 71 71 71 71 73 73 74 82 81 83 75
63 63 64 68 69 72 72 72 70 71 70 73 71 72 76 81 83 81 85 84 80 82
67 67 66 65 67 70 75 74 75 73 73 72 72 74 75 78 83 86 86 85 83 82
74 74 73 70 69 73 70 72 72 74 75 78 80 80 83 86 85 84 85 85 85 86
75 75 77 77 78 76 77 78 77 75 78 80 81 79 81 86 87 90 89 86 85 86
75 75 76 77 78 78 80 83 83 85 81 83 83 81 83 81 83 89 89 87 85 84
73 76 75 76 78 81 81 80 81 83 83 81 82 83 84 84 84 88 88 86 85 86
Wind_Direction
285 278 275 272 269 269 270 267 269 270 265 263 267 268 265 268 269 268 271 271 273 277
294 291 286 285 284 281 280 278 279 276 270 268 266 269 270 268 269 269 270 273 275 274
304 297 294 293 290 286 284 288 290 292 286 274 270 272 272 271 272 271 273 273 274 275
307 304 298 290 294 290 302 290 292 294 295 293 288 283 278 276 274 273 274 274 275 275
310 307 304 296 293 309 295 300 292 295 296 297 294 290 284 285 286 282 276 276 276 276
312 309 307 305 301 297 289 303 297 297 293 293 293 293 293 290 290 286 287 284 284 286
307 308 307 307 306 307 307 301 297 289 289 290 293 293 293 292 292 288 290 290 288 287
309 306 304 305 305 306 304 304 305 304 297 290 293 291 293 295 291 295 289 288 288 288
313 312 308 305 303 303 303 303 304 301 300 299 298 296 293 290 291 292 289 288 289 292
315 313 308 310 308 306 303 301 299 299 300 298 299 299 297 298 292 289 289 291 290 290
317 310 309 309 310 307 307 304 303 301 300 298 296 297 299 295 292 290 291 291 289 290
322 320 314 311 306 306 304 303 303 302 301 298 297 301 298 296 292 290 289 290 291 292
325 322 319 318 316 314 308 304 302 301 303 301 300 302 300 298 296 291 290 289 290 290
332 327 326 321 318 315 314 312 310 305 304 303 301 299 298 297 295 290 290 291 289 286